Location: Newark
(52.4787°S, 179.0532°W)
Time: 10:42:11
(UTC+00:00)

Transit 2A Rocket - Pass Details

Date: 26 November 2019
Orbit: 594 x 909 km, 66.7° (Epoch: 11 December)

Event Time Altitude Azimuth Distance (km) Brightness Sun altitude
Rises 23:36:40 0° 251° (WSW) 3,512 8.3 58.5°
Reaches altitude 10° 23:39:48 10° 235° (SW) 2,602 7.7 58.5°
Maximum altitude 23:44:25 22° 186° (S) 1,918 7.0 58.5°
Drops below altitude 10° 23:49:04 10° 137° (SE) 2,622 7.6 58.5°
Sets 23:52:14 0° 121° (ESE) 3,547 8.3 58.5°
